Time,TemperatureF,DewpointF,PressureIn,WindDirection,WindDirectionDegrees,WindSpeedMPH,WindSpeedGustMPH,Humidity,HourlyPrecipIn,Conditions,Clouds,dailyrainin,SoftwareType,DateUTC
2013-02-02 00:06:00,42.6,42.1,30.38,NE,51,1.0,2.0,98,0.00,,,0.00,Wunderground v.1.15,2013-02-02 08:06:00,
2013-02-02 00:11:00,42.6,42.1,30.38,NE,51,0.0,0.0,98,0.00,,,0.00,Wunderground v.1.15,2013-02-02 08:11:00,
2013-02-02 00:16:00,42.6,42.1,30.38,NE,52,1.0,2.0,98,0.00,,,0.00,Wunderground v.1.15,2013-02-02 08:16:00,
2013-02-02 00:21:00,42.6,42.1,30.38,NE,52,1.0,1.0,98,0.00,,,0.00,Wunderground v.1.15,2013-02-02 08:21:00,
2013-02-02 00:26:00,42.5,42.0,30.38,NE,52,0.0,1.0,98,0.00,,,0.00,Wunderground v.1.15,2013-02-02 08:26:00,
2013-02-02 00:32:00,42.5,42.0,30.38,NE,52,0.0,2.0,98,0.00,,,0.00,Wunderground v.1.15,2013-02-02 08:32:00,
2013-02-02 00:38:00,42.5,42.0,30.38,NE,52,0.0,2.0,98,0.00,,,0.00,Wunderground v.1.15,2013-02-02 08:38:00,
2013-02-02 00:43:00,42.5,42.0,30.38,NE,52,0.0,0.0,98,0.00,,,0.00,Wunderground v.1.15,2013-02-02 08:43:00,
2013-02-02 00:48:00,42.5,42.0,30.38,NE,52,0.0,0.0,98,0.00,,,0.00,Wunderground v.1.15,2013-02-02 08:48:00,
2013-02-02 00:53:00,42.5,42.0,30.38,NE,52,0.0,0.0,98,0.00,,,0.00,Wunderground v.1.15,2013-02-02 08:53:00,
2013-02-02 00:59:00,42.4,41.9,30.38,NE,52,0.0,3.0,98,0.00,,,0.00,Wunderground v.1.15,2013-02-02 08:59:00,
2013-02-02 01:04:00,42.4,41.9,30.38,East,93,1.0,5.0,98,0.00,,,0.00,Wunderground v.1.15,2013-02-02 09:04:00,
2013-02-02 01:09:00,42.3,41.8,30.38,East,91,1.0,5.0,98,0.00,,,0.00,Wunderground v.1.15,2013-02-02 09:09:00,
2013-02-02 01:16:00,42.2,41.7,30.38,East,91,0.0,4.0,98,0.00,,,0.00,Wunderground v.1.15,2013-02-02 09:16:00,
2013-02-02 01:21:00,42.1,41.3,30.39,East,91,0.0,0.0,97,0.00,,,0.00,Wunderground v.1.15,2013-02-02 09:21:00,
2013-02-02 01:26:00,42.0,41.2,30.39,East,91,0.0,0.0,97,0.00,,,0.00,Wunderground v.1.15,2013-02-02 09:26:00,
2013-02-02 01:32:00,42.0,41.2,30.39,East,91,0.0,0.0,97,0.00,,,0.00,Wunderground v.1.15,2013-02-02 09:32:00,
2013-02-02 01:37:00,41.9,41.1,30.39,NE,54,1.0,4.0,97,0.00,,,0.00,Wunderground v.1.15,2013-02-02 09:37:00,
2013-02-02 01:42:00,41.8,41.0,30.39,ENE,61,2.0,4.0,97,0.00,,,0.00,Wunderground v.1.15,2013-02-02 09:42:00,
2013-02-02 01:47:00,41.7,40.9,30.39,ENE,61,2.0,4.0,97,0.00,,,0.00,Wunderground v.1.15,2013-02-02 09:47:00,
2013-02-02 01:53:00,41.6,40.8,30.39,ENE,60,1.0,1.0,97,0.00,,,0.00,Wunderground v.1.15,2013-02-02 09:53:00,
2013-02-02 01:58:00,41.4,40.6,30.39,ENE,61,1.0,3.0,97,0.00,,,0.00,Wunderground v.1.15,2013-02-02 09:58:00,
2013-02-02 02:03:00,41.3,40.5,30.39,ENE,61,2.0,2.0,97,0.00,,,0.00,Wunderground v.1.15,2013-02-02 10:03:00,
2013-02-02 02:08:00,41.2,40.4,30.39,ENE,61,1.0,2.0,97,0.00,,,0.00,Wunderground v.1.15,2013-02-02 10:08:00,
2013-02-02 02:14:00,41.1,40.6,30.39,ENE,61,0.0,0.0,98,0.00,,,0.00,Wunderground v.1.15,2013-02-02 10:14:00,
2013-02-02 02:19:00,41.1,40.6,30.39,ENE,61,0.0,0.0,98,0.00,,,0.00,Wunderground v.1.15,2013-02-02 10:19:00,
2013-02-02 02:24:00,41.0,41.0,30.39,ENE,61,1.0,4.0,100,0.00,,,0.00,Wunderground v.1.15,2013-02-02 10:24:00,
2013-02-02 02:29:00,40.9,40.4,30.39,East,88,1.0,5.0,98,0.00,,,0.00,Wunderground v.1.15,2013-02-02 10:29:00,
2013-02-02 02:35:00,40.9,40.4,30.39,NE,47,1.0,3.0,98,0.00,,,0.00,Wunderground v.1.15,2013-02-02 10:35:00,
2013-02-02 02:40:00,40.9,40.4,30.39,NE,47,1.0,3.0,98,0.00,,,0.00,Wunderground v.1.15,2013-02-02 10:40:00,
2013-02-02 02:46:00,40.8,40.3,30.38,NE,49,1.0,3.0,98,0.00,,,0.00,Wunderground v.1.15,2013-02-02 10:46:00,
2013-02-02 02:51:00,40.8,40.3,30.38,NE,49,1.0,2.0,98,0.00,,,0.00,Wunderground v.1.15,2013-02-02 10:51:00,
2013-02-02 02:56:00,40.7,40.2,30.38,NE,46,1.0,2.0,98,0.00,,,0.00,Wunderground v.1.15,2013-02-02 10:56:00,
2013-02-02 03:01:00,40.6,40.1,30.38,NE,46,1.0,2.0,98,0.00,,,0.00,Wunderground v.1.15,2013-02-02 11:01:00,
2013-02-02 03:07:00,40.5,40.0,30.38,NE,47,1.0,3.0,98,0.00,,,0.00,Wunderground v.1.15,2013-02-02 11:07:00,
2013-02-02 03:13:00,40.3,39.5,30.38,NE,47,1.0,1.0,97,0.00,,,0.00,Wunderground v.1.15,2013-02-02 11:13:00,
2013-02-02 03:18:00,40.2,39.7,30.38,NE,47,0.0,1.0,98,0.00,,,0.00,Wunderground v.1.15,2013-02-02 11:18:00,
2013-02-02 03:23:00,40.2,39.7,30.37,NE,47,0.0,1.0,98,0.00,,,0.00,Wunderground v.1.15,2013-02-02 11:23:00,
2013-02-02 03:29:00,40.1,39.6,30.37,NE,47,0.0,2.0,98,0.00,,,0.00,Wunderground v.1.15,2013-02-02 11:29:00,
2013-02-02 03:34:00,40.1,39.6,30.37,NE,47,0.0,0.0,98,0.00,,,0.00,Wunderground v.1.15,2013-02-02 11:34:00,
2013-02-02 03:39:00,40.0,39.5,30.37,NE,47,0.0,0.0,98,0.00,,,0.00,Wunderground v.1.15,2013-02-02 11:39:00,
2013-02-02 03:45:00,40.0,39.5,30.37,NE,47,0.0,3.0,98,0.00,,,0.00,Wunderground v.1.15,2013-02-02 11:45:00,
2013-02-02 03:51:00,39.9,39.4,30.37,NE,50,1.0,3.0,98,0.00,,,0.00,Wunderground v.1.15,2013-02-02 11:51:00,
2013-02-02 03:56:00,39.8,39.3,30.36,NE,50,1.0,3.0,98,0.00,,,0.00,Wunderground v.1.15,2013-02-02 11:56:00,
2013-02-02 04:01:00,39.8,39.3,30.36,NE,50,0.0,0.0,98,0.00,,,0.00,Wunderground v.1.15,2013-02-02 12:01:00,
2013-02-02 04:06:00,39.7,39.2,30.36,NE,50,0.0,0.0,98,0.00,,,0.00,Wunderground v.1.15,2013-02-02 12:06:00,
2013-02-02 04:11:00,39.7,39.2,30.36,NE,50,0.0,2.0,98,0.00,,,0.00,Wunderground v.1.15,2013-02-02 12:11:00,
2013-02-02 04:17:00,39.6,39.1,30.36,NE,50,0.0,2.0,98,0.00,,,0.00,Wunderground v.1.15,2013-02-02 12:17:00,
2013-02-02 04:22:00,39.5,39.0,30.36,NE,50,0.0,0.0,98,0.00,,,0.00,Wunderground v.1.15,2013-02-02 12:22:00,
2013-02-02 04:27:00,39.4,38.9,30.36,NE,50,0.0,0.0,98,0.00,,,0.00,Wunderground v.1.15,2013-02-02 12:27:00,
2013-02-02 04:32:00,39.3,38.8,30.36,NE,50,0.0,0.0,98,0.00,,,0.00,Wunderground v.1.15,2013-02-02 12:32:00,
2013-02-02 04:38:00,39.4,38.9,30.36,NE,50,0.0,2.0,98,0.00,,,0.00,Wunderground v.1.15,2013-02-02 12:38:00,
2013-02-02 04:43:00,39.4,38.9,30.36,NE,50,0.0,2.0,98,0.00,,,0.00,Wunderground v.1.15,2013-02-02 12:43:00,
2013-02-02 04:48:00,39.4,38.9,30.36,NE,50,0.0,2.0,98,0.00,,,0.00,Wunderground v.1.15,2013-02-02 12:48:00,
2013-02-02 04:53:00,39.4,38.9,30.36,NE,50,0.0,0.0,98,0.00,,,0.00,Wunderground v.1.15,2013-02-02 12:53:00,
2013-02-02 04:59:00,39.4,38.9,30.35,NE,50,0.0,2.0,98,0.00,,,0.00,Wunderground v.1.15,2013-02-02 12:59:00,
2013-02-02 05:04:00,39.3,38.8,30.35,NE,50,0.0,0.0,98,0.00,,,0.00,Wunderground v.1.15,2013-02-02 13:04:00,
2013-02-02 05:09:00,39.3,38.8,30.35,NE,50,1.0,2.0,98,0.00,,,0.00,Wunderground v.1.15,2013-02-02 13:09:00,
2013-02-02 05:16:00,39.3,38.8,30.35,NE,50,1.0,1.0,98,0.00,,,0.00,Wunderground v.1.15,2013-02-02 13:16:00,
2013-02-02 05:21:00,39.2,38.7,30.35,NE,50,0.0,0.0,98,0.00,,,0.00,Wunderground v.1.15,2013-02-02 13:21:00,
2013-02-02 05:27:00,39.1,38.6,30.35,NE,50,0.0,2.0,98,0.00,,,0.00,Wunderground v.1.15,2013-02-02 13:27:00,
2013-02-02 05:32:00,39.0,38.5,30.35,NE,50,0.0,0.0,98,0.00,,,0.00,Wunderground v.1.15,2013-02-02 13:32:00,
2013-02-02 05:37:00,38.9,38.4,30.34,NE,50,0.0,0.0,98,0.00,,,0.00,Wunderground v.1.15,2013-02-02 13:37:00,
2013-02-02 05:42:00,38.9,38.4,30.34,NE,50,0.0,0.0,98,0.00,,,0.00,Wunderground v.1.15,2013-02-02 13:42:00,
2013-02-02 05:48:00,38.8,38.3,30.34,NE,50,0.0,3.0,98,0.00,,,0.00,Wunderground v.1.15,2013-02-02 13:48:00,
2013-02-02 05:53:00,38.7,38.2,30.35,NE,51,1.0,1.0,98,0.00,,,0.00,Wunderground v.1.15,2013-02-02 13:53:00,
2013-02-02 05:58:00,38.6,38.1,30.35,NE,53,0.0,2.0,98,0.00,,,0.00,Wunderground v.1.15,2013-02-02 13:58:00,
2013-02-02 06:03:00,38.5,38.0,30.34,ENE,62,1.0,3.0,98,0.00,,,0.00,Wunderground v.1.15,2013-02-02 14:03:00,
2013-02-02 06:08:00,38.4,37.9,30.34,ENE,77,1.0,3.0,98,0.00,,,0.00,Wunderground v.1.15,2013-02-02 14:08:00,
2013-02-02 06:14:00,38.2,37.7,30.34,East,80,1.0,1.0,98,0.00,,,0.00,Wunderground v.1.15,2013-02-02 14:14:00,
2013-02-02 06:19:00,38.1,37.6,30.34,East,80,0.0,1.0,98,0.00,,,0.00,Wunderground v.1.15,2013-02-02 14:19:00,
2013-02-02 06:24:00,38.0,37.5,30.34,East,80,0.0,0.0,98,0.00,,,0.00,Wunderground v.1.15,2013-02-02 14:24:00,
2013-02-02 06:29:00,37.9,37.4,30.34,East,80,0.0,3.0,98,0.00,,,0.00,Wunderground v.1.15,2013-02-02 14:29:00,
2013-02-02 06:34:00,37.8,37.3,30.34,East,80,1.0,3.0,98,0.00,,,0.00,Wunderground v.1.15,2013-02-02 14:34:00,
2013-02-02 06:41:00,37.7,37.2,30.34,East,80,0.0,0.0,98,0.00,,,0.00,Wunderground v.1.15,2013-02-02 14:41:00,
2013-02-02 06:46:00,37.7,37.2,30.34,East,80,1.0,3.0,98,0.00,,,0.00,Wunderground v.1.15,2013-02-02 14:46:00,
2013-02-02 06:51:00,37.7,37.2,30.34,East,80,1.0,1.0,98,0.00,,,0.00,Wunderground v.1.15,2013-02-02 14:51:00,
2013-02-02 06:57:00,37.7,37.2,30.34,East,80,0.0,2.0,98,0.00,,,0.00,Wunderground v.1.15,2013-02-02 14:57:00,
2013-02-02 07:03:00,37.6,37.1,30.34,East,82,1.0,2.0,98,0.00,,,0.00,Wunderground v.1.15,2013-02-02 15:03:00,
2013-02-02 07:08:00,37.4,36.9,30.34,East,84,2.0,3.0,98,0.00,,,0.00,Wunderground v.1.15,2013-02-02 15:08:00,
2013-02-02 07:13:00,37.2,36.7,30.34,East,84,2.0,3.0,98,0.00,,,0.00,Wunderground v.1.15,2013-02-02 15:13:00,
2013-02-02 07:18:00,37.1,36.6,30.34,East,85,2.0,3.0,98,0.00,,,0.00,Wunderground v.1.15,2013-02-02 15:18:00,
2013-02-02 07:23:00,37.1,36.6,30.33,East,84,1.0,3.0,98,0.00,,,0.00,Wunderground v.1.15,2013-02-02 15:23:00,
2013-02-02 07:29:00,37.0,36.5,30.33,East,83,2.0,4.0,98,0.00,,,0.00,Wunderground v.1.15,2013-02-02 15:29:00,
2013-02-02 07:34:00,36.9,36.4,30.33,East,82,2.0,3.0,98,0.00,,,0.00,Wunderground v.1.15,2013-02-02 15:34:00,
2013-02-02 07:39:00,36.9,36.4,30.33,East,82,1.0,3.0,98,0.00,,,0.00,Wunderground v.1.15,2013-02-02 15:39:00,
2013-02-02 07:46:00,36.8,36.3,30.33,East,81,1.0,3.0,98,0.00,,,0.00,Wunderground v.1.15,2013-02-02 15:46:00,
2013-02-02 07:51:00,36.7,36.2,30.33,East,81,1.0,1.0,98,0.00,,,0.00,Wunderground v.1.15,2013-02-02 15:51:00,
2013-02-02 07:56:00,36.6,36.1,30.33,East,81,0.0,2.0,98,0.00,,,0.00,Wunderground v.1.15,2013-02-02 15:56:00,
2013-02-02 08:01:00,36.6,36.1,30.34,East,81,1.0,1.0,98,0.00,,,0.00,Wunderground v.1.15,2013-02-02 16:01:00,
2013-02-02 08:06:00,36.6,36.1,30.34,East,81,1.0,2.0,98,0.00,,,0.00,Wunderground v.1.15,2013-02-02 16:06:00,
2013-02-02 08:12:00,36.5,36.0,30.34,East,81,0.0,2.0,98,0.00,,,0.00,Wunderground v.1.15,2013-02-02 16:12:00,
2013-02-02 08:18:00,36.6,36.1,30.33,East,81,1.0,4.0,98,0.00,,,0.00,Wunderground v.1.15,2013-02-02 16:18:00,
2013-02-02 08:23:00,36.6,36.1,30.33,East,81,1.0,1.0,98,0.00,,,0.00,Wunderground v.1.15,2013-02-02 16:23:00,
2013-02-02 08:28:00,36.6,36.1,30.33,East,81,0.0,2.0,98,0.00,,,0.00,Wunderground v.1.15,2013-02-02 16:28:00,
2013-02-02 08:34:00,36.4,35.9,30.33,East,81,1.0,2.0,98,0.00,,,0.00,Wunderground v.1.15,2013-02-02 16:34:00,
2013-02-02 08:39:00,36.2,35.7,30.34,East,81,1.0,2.0,98,0.00,,,0.00,Wunderground v.1.15,2013-02-02 16:39:00,
2013-02-02 08:44:00,36.2,35.7,30.34,East,81,1.0,2.0,98,0.00,,,0.00,Wunderground v.1.15,2013-02-02 16:44:00,
2013-02-02 08:49:00,36.2,35.7,30.34,East,81,1.0,2.0,98,0.00,,,0.00,Wunderground v.1.15,2013-02-02 16:49:00,
2013-02-02 08:54:00,36.2,35.7,30.34,East,81,0.0,2.0,98,0.00,,,0.00,Wunderground v.1.15,2013-02-02 16:54:00,
2013-02-02 09:01:00,36.2,35.7,30.34,East,81,0.0,0.0,98,0.00,,,0.00,Wunderground v.1.15,2013-02-02 17:01:00,
2013-02-02 09:06:00,36.2,35.7,30.34,East,81,0.0,0.0,98,0.00,,,0.00,Wunderground v.1.15,2013-02-02 17:06:00,
2013-02-02 09:12:00,36.3,35.8,30.34,East,81,0.0,0.0,98,0.00,,,0.00,Wunderground v.1.15,2013-02-02 17:12:00,
2013-02-02 09:17:00,36.4,35.9,30.34,East,81,0.0,0.0,98,0.00,,,0.00,Wunderground v.1.15,2013-02-02 17:17:00,
2013-02-02 09:22:00,36.4,35.9,30.34,SE,134,0.0,1.0,98,0.00,,,0.00,Wunderground v.1.15,2013-02-02 17:22:00,
2013-02-02 09:27:00,36.4,35.9,30.34,SE,134,1.0,1.0,98,0.00,,,0.00,Wunderground v.1.15,2013-02-02 17:27:00,
2013-02-02 09:33:00,36.4,35.9,30.34,SE,134,0.0,0.0,98,0.00,,,0.00,Wunderground v.1.15,2013-02-02 17:33:00,
2013-02-02 09:38:00,36.6,36.1,30.33,SE,134,0.0,0.0,98,0.00,,,0.00,Wunderground v.1.15,2013-02-02 17:38:00,
2013-02-02 09:43:00,36.7,36.2,30.34,SE,134,0.0,0.0,98,0.00,,,0.00,Wunderground v.1.15,2013-02-02 17:43:00,
2013-02-02 09:48:00,37.0,36.7,30.34,SE,134,0.0,2.0,99,0.00,,,0.00,Wunderground v.1.15,2013-02-02 17:48:00,
2013-02-02 09:53:00,37.2,36.9,30.34,SE,134,0.0,0.0,99,0.00,,,0.00,Wunderground v.1.15,2013-02-02 17:53:00,
2013-02-02 09:59:00,37.2,36.7,30.34,SE,134,0.0,1.0,98,0.00,,,0.00,Wunderground v.1.15,2013-02-02 17:59:00,
2013-02-02 10:04:00,37.3,36.8,30.34,SE,134,0.0,0.0,98,0.00,,,0.00,Wunderground v.1.15,2013-02-02 18:04:00,
2013-02-02 10:09:00,37.3,36.8,30.34,SW,225,1.0,4.0,98,0.00,,,0.00,Wunderground v.1.15,2013-02-02 18:09:00,
2013-02-02 10:15:00,37.3,36.8,30.35,SW,225,2.0,3.0,98,0.00,,,0.00,Wunderground v.1.15,2013-02-02 18:15:00,
2013-02-02 10:21:00,37.5,37.0,30.34,SW,229,2.0,2.0,98,0.00,,,0.00,Wunderground v.1.15,2013-02-02 18:21:00,
2013-02-02 10:26:00,37.5,37.0,30.34,SW,229,2.0,4.0,98,0.00,,,0.00,Wunderground v.1.15,2013-02-02 18:26:00,
2013-02-02 10:32:00,37.6,37.1,30.34,WNW,287,1.0,3.0,98,0.00,,,0.00,Wunderground v.1.15,2013-02-02 18:32:00,
2013-02-02 10:37:00,37.8,37.3,30.34,West,260,1.0,3.0,98,0.00,,,0.00,Wunderground v.1.15,2013-02-02 18:37:00,
2013-02-02 10:42:00,37.9,37.4,30.34,West,259,1.0,2.0,98,0.00,,,0.00,Wunderground v.1.15,2013-02-02 18:42:00,
2013-02-02 10:48:00,37.9,37.4,30.34,WSW,251,1.0,3.0,98,0.00,,,0.00,Wunderground v.1.15,2013-02-02 18:48:00,
2013-02-02 10:53:00,37.9,37.4,30.34,West,280,1.0,4.0,98,0.00,,,0.00,Wunderground v.1.15,2013-02-02 18:53:00,
2013-02-02 10:58:00,37.9,37.4,30.34,West,281,1.0,4.0,98,0.00,,,0.00,Wunderground v.1.15,2013-02-02 18:58:00,
2013-02-02 11:03:00,37.9,37.4,30.34,West,281,0.0,1.0,98,0.00,,,0.00,Wunderground v.1.15,2013-02-02 19:03:00,
2013-02-02 11:10:00,38.0,37.5,30.34,West,277,1.0,3.0,98,0.00,,,0.00,Wunderground v.1.15,2013-02-02 19:10:00,
2013-02-02 11:16:00,38.0,37.5,30.33,West,277,1.0,1.0,98,0.00,,,0.00,Wunderground v.1.15,2013-02-02 19:16:00,
2013-02-02 11:21:00,38.2,37.7,30.33,West,277,0.0,0.0,98,0.00,,,0.00,Wunderground v.1.15,2013-02-02 19:21:00,
2013-02-02 11:26:00,38.3,37.8,30.33,West,277,0.0,0.0,98,0.00,,,0.00,Wunderground v.1.15,2013-02-02 19:26:00,
2013-02-02 11:31:00,38.6,38.1,30.33,West,277,0.0,0.0,98,0.00,,,0.00,Wunderground v.1.15,2013-02-02 19:31:00,
2013-02-02 11:37:00,39.0,38.5,30.33,West,277,0.0,0.0,98,0.00,,,0.00,Wunderground v.1.15,2013-02-02 19:37:00,
2013-02-02 11:42:00,39.3,38.8,30.33,West,273,1.0,2.0,98,0.00,,,0.00,Wunderground v.1.15,2013-02-02 19:42:00,
2013-02-02 11:47:00,39.3,38.8,30.32,West,273,0.0,2.0,98,0.00,,,0.00,Wunderground v.1.15,2013-02-02 19:47:00,
2013-02-02 11:53:00,39.5,39.0,30.32,West,281,1.0,3.0,98,0.00,,,0.00,Wunderground v.1.15,2013-02-02 19:53:00,
2013-02-02 11:59:00,39.7,39.2,30.32,WNW,283,1.0,3.0,98,0.00,,,0.00,Wunderground v.1.15,2013-02-02 19:59:00,
2013-02-02 12:04:00,39.9,39.4,30.32,WNW,283,1.0,1.0,98,0.00,,,0.00,Wunderground v.1.15,2013-02-02 20:04:00,
2013-02-02 12:09:00,40.1,39.3,30.32,WNW,282,0.0,2.0,97,0.00,,,0.00,Wunderground v.1.15,2013-02-02 20:09:00,
2013-02-02 12:15:00,40.0,39.2,30.32,WNW,296,2.0,3.0,97,0.00,,,0.00,Wunderground v.1.15,2013-02-02 20:15:00,
2013-02-02 12:20:00,40.1,39.3,30.32,WNW,294,2.0,4.0,97,0.00,,,0.00,Wunderground v.1.15,2013-02-02 20:20:00,
2013-02-02 12:26:00,40.1,39.1,30.32,WNW,294,2.0,3.0,96,0.00,,,0.00,Wunderground v.1.15,2013-02-02 20:26:00,
2013-02-02 12:31:00,40.1,39.1,30.32,WNW,293,1.0,1.0,96,0.00,,,0.00,Wunderground v.1.15,2013-02-02 20:31:00,
2013-02-02 12:36:00,40.2,39.2,30.31,WNW,293,0.0,1.0,96,0.00,,,0.00,Wunderground v.1.15,2013-02-02 20:36:00,
2013-02-02 12:41:00,40.2,39.2,30.31,WNW,296,0.0,0.0,96,0.00,,,0.00,Wunderground v.1.15,2013-02-02 20:41:00,
2013-02-02 12:46:00,40.3,39.3,30.31,WNW,296,0.0,2.0,96,0.00,,,0.00,Wunderground v.1.15,2013-02-02 20:46:00,
2013-02-02 12:52:00,40.5,39.7,30.31,WNW,291,1.0,2.0,97,0.00,,,0.00,Wunderground v.1.15,2013-02-02 20:52:00,
2013-02-02 12:57:00,40.5,39.4,30.31,WNW,291,0.0,2.0,96,0.00,,,0.00,Wunderground v.1.15,2013-02-02 20:57:00,
2013-02-02 13:02:00,40.5,39.4,30.31,WNW,291,0.0,2.0,96,0.00,,,0.00,Wunderground v.1.15,2013-02-02 21:02:00,
2013-02-02 13:07:00,40.7,39.6,30.31,WNW,291,0.0,2.0,96,0.00,,,0.00,Wunderground v.1.15,2013-02-02 21:07:00,
2013-02-02 13:12:00,40.7,39.6,30.30,WNW,292,0.0,0.0,96,0.00,,,0.00,Wunderground v.1.15,2013-02-02 21:12:00,
2013-02-02 13:18:00,40.7,39.6,30.30,WNW,292,0.0,1.0,96,0.00,,,0.00,Wunderground v.1.15,2013-02-02 21:18:00,
2013-02-02 13:23:00,40.9,39.8,30.30,WNW,292,0.0,3.0,96,0.00,,,0.00,Wunderground v.1.15,2013-02-02 21:23:00,
2013-02-02 13:28:00,40.8,39.5,30.30,WNW,298,1.0,3.0,95,0.00,,,0.00,Wunderground v.1.15,2013-02-02 21:28:00,
2013-02-02 13:34:00,40.8,39.5,30.30,NW,304,2.0,3.0,95,0.00,,,0.00,Wunderground v.1.15,2013-02-02 21:34:00,
2013-02-02 13:39:00,40.8,39.5,30.30,WNW,298,2.0,4.0,95,0.00,,,0.00,Wunderground v.1.15,2013-02-02 21:39:00,
2013-02-02 13:44:00,40.7,39.4,30.30,WSW,253,2.0,5.0,95,0.00,,,0.00,Wunderground v.1.15,2013-02-02 21:44:00,
2013-02-02 13:49:00,40.7,39.4,30.30,WNW,300,2.0,5.0,95,0.00,,,0.00,Wunderground v.1.15,2013-02-02 21:49:00,
2013-02-02 13:55:00,40.7,39.4,30.31,WNW,297,2.0,3.0,95,0.00,,,0.00,Wunderground v.1.15,2013-02-02 21:55:00,
2013-02-02 14:01:00,40.8,39.5,30.30,West,267,2.0,2.0,95,0.00,,,0.00,Wunderground v.1.15,2013-02-02 22:01:00,
2013-02-02 14:06:00,40.9,39.6,30.30,WSW,242,1.0,3.0,95,0.00,,,0.00,Wunderground v.1.15,2013-02-02 22:06:00,
2013-02-02 14:12:00,40.9,39.6,30.30,SW,221,1.0,4.0,95,0.00,,,0.00,Wunderground v.1.15,2013-02-02 22:12:00,
2013-02-02 14:17:00,40.7,39.4,30.30,SW,221,1.0,4.0,95,0.00,,,0.00,Wunderground v.1.15,2013-02-02 22:17:00,
2013-02-02 14:22:00,40.6,39.3,30.30,SW,221,0.0,1.0,95,0.00,,,0.00,Wunderground v.1.15,2013-02-02 22:22:00,
2013-02-02 14:27:00,40.6,39.3,30.30,SW,221,0.0,1.0,95,0.00,,,0.00,Wunderground v.1.15,2013-02-02 22:27:00,
2013-02-02 14:33:00,40.7,39.6,30.30,SW,221,1.0,3.0,96,0.00,,,0.00,Wunderground v.1.15,2013-02-02 22:33:00,
2013-02-02 14:38:00,40.8,39.7,30.30,WNW,282,1.0,3.0,96,0.00,,,0.00,Wunderground v.1.15,2013-02-02 22:38:00,
2013-02-02 14:43:00,40.9,39.8,30.30,WNW,282,1.0,1.0,96,0.00,,,0.00,Wunderground v.1.15,2013-02-02 22:43:00,
2013-02-02 14:48:00,41.0,39.9,30.30,WNW,283,1.0,3.0,96,0.00,,,0.00,Wunderground v.1.15,2013-02-02 22:48:00,
2013-02-02 14:54:00,41.1,39.8,30.30,WNW,285,2.0,3.0,95,0.00,,,0.00,Wunderground v.1.15,2013-02-02 22:54:00,
2013-02-02 14:59:00,41.1,40.0,30.29,WNW,285,2.0,3.0,96,0.00,,,0.00,Wunderground v.1.15,2013-02-02 22:59:00,
2013-02-02 15:04:00,41.3,40.2,30.29,WNW,284,1.0,2.0,96,0.00,,,0.00,Wunderground v.1.15,2013-02-02 23:04:00,
2013-02-02 15:09:00,41.4,40.3,30.29,WNW,284,0.0,2.0,96,0.00,,,0.00,Wunderground v.1.15,2013-02-02 23:09:00,
2013-02-02 15:15:00,41.6,40.5,30.29,West,272,2.0,4.0,96,0.00,,,0.00,Wunderground v.1.15,2013-02-02 23:15:00,
2013-02-02 15:21:00,41.7,40.4,30.29,SW,218,2.0,2.0,95,0.00,,,0.00,Wunderground v.1.15,2013-02-02 23:21:00,
2013-02-02 15:26:00,41.7,40.6,30.29,SW,218,0.0,2.0,96,0.00,,,0.00,Wunderground v.1.15,2013-02-02 23:26:00,
2013-02-02 15:32:00,41.9,40.8,30.29,SW,219,0.0,0.0,96,0.00,,,0.00,Wunderground v.1.15,2013-02-02 23:32:00,
2013-02-02 15:37:00,41.9,40.8,30.29,SW,219,0.0,0.0,96,0.00,,,0.00,Wunderground v.1.15,2013-02-02 23:37:00,
2013-02-02 15:42:00,42.0,40.7,30.28,SW,219,0.0,0.0,95,0.00,,,0.00,Wunderground v.1.15,2013-02-02 23:42:00,
2013-02-02 15:47:00,42.1,40.8,30.28,SW,219,0.0,1.0,95,0.00,,,0.00,Wunderground v.1.15,2013-02-02 23:47:00,
2013-02-02 15:53:00,42.2,40.9,30.28,SW,219,1.0,4.0,95,0.00,,,0.00,Wunderground v.1.15,2013-02-02 23:53:00,
2013-02-02 15:58:00,42.1,40.8,30.28,SW,219,1.0,4.0,95,0.00,,,0.00,Wunderground v.1.15,2013-02-02 23:58:00,
2013-02-02 16:03:00,42.1,40.8,30.28,SW,219,1.0,1.0,95,0.00,,,0.00,Wunderground v.1.15,2013-02-03 00:03:00,
2013-02-02 16:10:00,42.0,40.4,30.28,SW,219,0.0,2.0,94,0.00,,,0.00,Wunderground v.1.15,2013-02-03 00:10:00,
2013-02-02 16:16:00,42.0,40.4,30.28,SW,219,1.0,2.0,94,0.00,,,0.00,Wunderground v.1.15,2013-02-03 00:16:00,
2013-02-02 16:21:00,41.9,40.6,30.28,SW,219,1.0,1.0,95,0.00,,,0.00,Wunderground v.1.15,2013-02-03 00:21:00,
2013-02-02 16:26:00,41.8,40.2,30.28,SW,219,1.0,3.0,94,0.00,,,0.00,Wunderground v.1.15,2013-02-03 00:26:00,
2013-02-02 16:31:00,41.6,40.0,30.28,SW,218,1.0,2.0,94,0.00,,,0.00,Wunderground v.1.15,2013-02-03 00:31:00,
2013-02-02 16:37:00,41.6,40.3,30.27,SW,218,1.0,2.0,95,0.00,,,0.00,Wunderground v.1.15,2013-02-03 00:37:00,
2013-02-02 16:42:00,41.5,40.2,30.28,SW,227,1.0,4.0,95,0.00,,,0.00,Wunderground v.1.15,2013-02-03 00:42:00,
2013-02-02 16:47:00,41.4,40.1,30.27,SW,233,1.0,4.0,95,0.00,,,0.00,Wunderground v.1.15,2013-02-03 00:47:00,
2013-02-02 16:52:00,41.4,40.1,30.28,SW,233,1.0,1.0,95,0.00,,,0.00,Wunderground v.1.15,2013-02-03 00:52:00,
2013-02-02 16:58:00,41.4,40.1,30.28,SW,233,0.0,2.0,95,0.00,,,0.00,Wunderground v.1.15,2013-02-03 00:58:00,
2013-02-02 17:03:00,41.4,40.1,30.28,SW,233,1.0,2.0,95,0.00,,,0.00,Wunderground v.1.15,2013-02-03 01:03:00,
2013-02-02 17:08:00,41.3,40.0,30.28,SW,233,1.0,2.0,95,0.00,,,0.00,Wunderground v.1.15,2013-02-03 01:08:00,
2013-02-02 17:14:00,41.3,40.0,30.28,SW,233,1.0,3.0,95,0.00,,,0.00,Wunderground v.1.15,2013-02-03 01:14:00,
2013-02-02 17:19:00,41.2,39.9,30.28,SW,233,1.0,3.0,95,0.00,,,0.00,Wunderground v.1.15,2013-02-03 01:19:00,
2013-02-02 17:24:00,41.1,39.8,30.28,SW,233,0.0,2.0,95,0.00,,,0.00,Wunderground v.1.15,2013-02-03 01:24:00,
2013-02-02 17:29:00,41.0,39.7,30.27,SW,233,0.0,2.0,95,0.00,,,0.00,Wunderground v.1.15,2013-02-03 01:29:00,
2013-02-02 17:35:00,41.0,39.7,30.27,SW,233,0.0,0.0,95,0.00,,,0.00,Wunderground v.1.15,2013-02-03 01:35:00,
2013-02-02 17:41:00,40.9,39.6,30.27,SW,233,0.0,2.0,95,0.00,,,0.00,Wunderground v.1.15,2013-02-03 01:41:00,
2013-02-02 17:46:00,40.8,39.7,30.27,SSW,202,1.0,3.0,96,0.00,,,0.00,Wunderground v.1.15,2013-02-03 01:46:00,
2013-02-02 17:51:00,40.6,39.5,30.27,SSW,196,1.0,2.0,96,0.00,,,0.00,Wunderground v.1.15,2013-02-03 01:51:00,
2013-02-02 17:56:00,40.5,39.4,30.27,ESE,119,2.0,5.0,96,0.00,,,0.00,Wunderground v.1.15,2013-02-03 01:56:00,
2013-02-02 18:01:00,40.4,39.4,30.27,SE,132,2.0,2.0,96,0.00,,,0.00,Wunderground v.1.15,2013-02-03 02:01:00,
2013-02-02 18:07:00,40.3,39.3,30.26,SE,131,1.0,2.0,96,0.00,,,0.00,Wunderground v.1.15,2013-02-03 02:07:00,
2013-02-02 18:13:00,40.2,39.2,30.26,East,85,1.0,3.0,96,0.00,,,0.00,Wunderground v.1.15,2013-02-03 02:13:00,
2013-02-02 18:18:00,40.2,39.4,30.27,NE,52,1.0,3.0,97,0.00,,,0.00,Wunderground v.1.15,2013-02-03 02:18:00,
2013-02-02 18:23:00,40.2,39.4,30.27,ENE,61,1.0,4.0,97,0.00,,,0.00,Wunderground v.1.15,2013-02-03 02:23:00,
2013-02-02 18:29:00,40.1,39.3,30.27,NNE,15,3.0,5.0,97,0.00,,,0.00,Wunderground v.1.15,2013-02-03 02:29:00,
2013-02-02 18:34:00,39.9,39.1,30.28,NNE,21,2.0,2.0,97,0.00,,,0.00,Wunderground v.1.15,2013-02-03 02:34:00,
2013-02-02 18:39:00,39.8,39.0,30.28,NNE,13,1.0,5.0,97,0.00,,,0.00,Wunderground v.1.15,2013-02-03 02:39:00,
2013-02-02 18:45:00,39.7,38.9,30.28,North,10,1.0,3.0,97,0.00,,,0.00,Wunderground v.1.15,2013-02-03 02:45:00,
2013-02-02 18:51:00,39.7,38.9,30.28,NE,53,1.0,1.0,97,0.00,,,0.00,Wunderground v.1.15,2013-02-03 02:51:00,
2013-02-02 18:56:00,39.7,38.9,30.28,NE,53,1.0,1.0,97,0.00,,,0.00,Wunderground v.1.15,2013-02-03 02:56:00,
2013-02-02 19:01:00,39.6,38.8,30.28,NE,53,0.0,1.0,97,0.00,,,0.00,Wunderground v.1.15,2013-02-03 03:01:00,
2013-02-02 19:06:00,39.6,38.8,30.28,NE,53,0.0,1.0,97,0.00,,,0.00,Wunderground v.1.15,2013-02-03 03:06:00,
2013-02-02 19:11:00,39.5,38.7,30.28,NE,52,1.0,1.0,97,0.00,,,0.00,Wunderground v.1.15,2013-02-03 03:11:00,
2013-02-02 19:17:00,39.5,38.7,30.28,NE,52,1.0,1.0,97,0.00,,,0.00,Wunderground v.1.15,2013-02-03 03:17:00,
2013-02-02 19:22:00,39.5,38.7,30.28,NE,53,0.0,0.0,97,0.00,,,0.00,Wunderground v.1.15,2013-02-03 03:22:00,
2013-02-02 19:27:00,39.4,38.6,30.28,NE,52,0.0,0.0,97,0.00,,,0.00,Wunderground v.1.15,2013-02-03 03:27:00,
2013-02-02 19:33:00,39.4,38.6,30.28,NE,52,0.0,0.0,97,0.00,,,0.00,Wunderground v.1.15,2013-02-03 03:33:00,
2013-02-02 19:38:00,39.3,38.5,30.29,NE,52,0.0,0.0,97,0.00,,,0.00,Wunderground v.1.15,2013-02-03 03:38:00,
2013-02-02 19:43:00,39.3,38.5,30.28,NE,52,0.0,0.0,97,0.00,,,0.00,Wunderground v.1.15,2013-02-03 03:43:00,
2013-02-02 19:49:00,39.2,38.4,30.28,NE,52,0.0,1.0,97,0.00,,,0.00,Wunderground v.1.15,2013-02-03 03:49:00,
2013-02-02 19:54:00,39.1,38.3,30.28,ENE,70,0.0,3.0,97,0.00,,,0.00,Wunderground v.1.15,2013-02-03 03:54:00,
2013-02-02 19:59:00,39.0,38.2,30.28,ESE,103,1.0,4.0,97,0.00,,,0.00,Wunderground v.1.15,2013-02-03 03:59:00,
2013-02-02 20:04:00,39.0,38.2,30.28,ESE,104,2.0,2.0,97,0.00,,,0.00,Wunderground v.1.15,2013-02-03 04:04:00,
2013-02-02 20:10:00,38.8,38.0,30.28,ESE,104,1.0,2.0,97,0.00,,,0.00,Wunderground v.1.15,2013-02-03 04:10:00,
2013-02-02 20:16:00,38.7,37.9,30.28,ESE,104,0.0,1.0,97,0.00,,,0.00,Wunderground v.1.15,2013-02-03 04:16:00,
2013-02-02 20:21:00,38.6,38.1,30.28,ESE,104,0.0,0.0,98,0.00,,,0.00,Wunderground v.1.15,2013-02-03 04:21:00,
2013-02-02 20:26:00,38.5,37.7,30.28,ESE,104,0.0,0.0,97,0.00,,,0.00,Wunderground v.1.15,2013-02-03 04:26:00,
2013-02-02 20:32:00,38.6,38.1,30.28,ESE,104,0.0,0.0,98,0.00,,,0.00,Wunderground v.1.15,2013-02-03 04:32:00,
2013-02-02 20:37:00,38.6,38.1,30.28,ESE,104,0.0,4.0,98,0.00,,,0.00,Wunderground v.1.15,2013-02-03 04:37:00,
2013-02-02 20:42:00,38.6,38.1,30.28,ESE,104,0.0,0.0,98,0.00,,,0.00,Wunderground v.1.15,2013-02-03 04:42:00,
2013-02-02 20:47:00,38.6,38.1,30.28,East,98,1.0,5.0,98,0.00,,,0.00,Wunderground v.1.15,2013-02-03 04:47:00,
2013-02-02 20:52:00,38.5,38.0,30.28,East,98,1.0,2.0,98,0.00,,,0.00,Wunderground v.1.15,2013-02-03 04:52:00,
2013-02-02 20:58:00,38.4,37.9,30.28,East,98,0.0,2.0,98,0.00,,,0.00,Wunderground v.1.15,2013-02-03 04:58:00,
2013-02-02 21:03:00,38.3,37.8,30.28,East,98,0.0,0.0,98,0.00,,,0.00,Wunderground v.1.15,2013-02-03 05:03:00,
2013-02-02 21:04:00,38.3,37.8,30.28,East,98,0.0,1.0,98,0.00,,,0.00,Wunderground v.1.15,2013-02-03 05:04:00,
2013-02-02 21:06:00,38.2,37.7,30.28,East,98,0.0,1.0,98,0.00,,,0.00,Wunderground v.1.15,2013-02-03 05:06:00,
2013-02-02 21:09:00,38.1,37.6,30.28,East,98,0.0,1.0,98,0.00,,,0.00,Wunderground v.1.15,2013-02-03 05:09:00,
2013-02-02 21:15:00,38.0,37.5,30.28,East,98,0.0,1.0,98,0.00,,,0.00,Wunderground v.1.15,2013-02-03 05:15:00,
2013-02-02 21:21:00,37.9,37.4,30.28,East,98,0.0,0.0,98,0.00,,,0.00,Wunderground v.1.15,2013-02-03 05:21:00,
2013-02-02 21:26:00,37.9,37.4,30.28,East,98,0.0,0.0,98,0.00,,,0.00,Wunderground v.1.15,2013-02-03 05:26:00,
2013-02-02 21:31:00,37.8,37.3,30.27,East,98,1.0,2.0,98,0.00,,,0.00,Wunderground v.1.15,2013-02-03 05:31:00,
2013-02-02 21:36:00,37.6,37.1,30.27,East,98,1.0,2.0,98,0.00,,,0.00,Wunderground v.1.15,2013-02-03 05:36:00,
2013-02-02 21:41:00,37.5,37.0,30.27,East,98,0.0,0.0,98,0.00,,,0.00,Wunderground v.1.15,2013-02-03 05:41:00,
2013-02-02 21:46:00,37.5,37.0,30.27,East,98,0.0,0.0,98,0.00,,,0.00,Wunderground v.1.15,2013-02-03 05:46:00,
2013-02-02 21:52:00,37.4,36.9,30.27,East,98,0.0,0.0,98,0.00,,,0.00,Wunderground v.1.15,2013-02-03 05:52:00,
2013-02-02 21:57:00,37.3,36.8,30.28,East,98,0.0,1.0,98,0.00,,,0.00,Wunderground v.1.15,2013-02-03 05:57:00,
2013-02-02 22:02:00,37.3,36.8,30.28,East,98,0.0,0.0,98,0.00,,,0.00,Wunderground v.1.15,2013-02-03 06:02:00,
2013-02-02 22:08:00,37.2,36.7,30.28,East,98,0.0,0.0,98,0.00,,,0.00,Wunderground v.1.15,2013-02-03 06:08:00,
2013-02-02 22:14:00,37.2,36.7,30.28,East,98,0.0,0.0,98,0.00,,,0.00,Wunderground v.1.15,2013-02-03 06:14:00,
2013-02-02 22:19:00,37.2,36.7,30.28,East,98,0.0,0.0,98,0.00,,,0.00,Wunderground v.1.15,2013-02-03 06:19:00,
2013-02-02 22:24:00,37.2,36.7,30.28,East,98,0.0,0.0,98,0.00,,,0.00,Wunderground v.1.15,2013-02-03 06:24:00,
2013-02-02 22:30:00,37.3,36.8,30.28,East,98,0.0,2.0,98,0.00,,,0.00,Wunderground v.1.15,2013-02-03 06:30:00,
2013-02-02 22:36:00,37.3,36.8,30.28,East,98,0.0,0.0,98,0.00,,,0.00,Wunderground v.1.15,2013-02-03 06:36:00,
2013-02-02 22:41:00,37.3,36.8,30.28,East,98,0.0,0.0,98,0.00,,,0.00,Wunderground v.1.15,2013-02-03 06:41:00,
2013-02-02 22:46:00,37.3,36.8,30.28,East,98,0.0,0.0,98,0.00,,,0.00,Wunderground v.1.15,2013-02-03 06:46:00,
2013-02-02 22:51:00,37.3,36.8,30.29,East,98,0.0,0.0,98,0.00,,,0.00,Wunderground v.1.15,2013-02-03 06:51:00,
2013-02-02 22:56:00,37.3,36.8,30.29,East,98,0.0,0.0,98,0.00,,,0.00,Wunderground v.1.15,2013-02-03 06:56:00,
2013-02-02 23:01:00,37.3,36.8,30.29,East,98,0.0,2.0,98,0.00,,,0.00,Wunderground v.1.15,2013-02-03 07:01:00,
2013-02-02 23:07:00,37.3,36.8,30.29,East,98,0.0,2.0,98,0.00,,,0.00,Wunderground v.1.15,2013-02-03 07:07:00,
2013-02-02 23:12:00,37.3,36.8,30.30,East,98,0.0,0.0,98,0.00,,,0.00,Wunderground v.1.15,2013-02-03 07:12:00,
2013-02-02 23:18:00,37.3,36.8,30.30,East,98,1.0,2.0,98,0.00,,,0.00,Wunderground v.1.15,2013-02-03 07:18:00,
2013-02-02 23:24:00,37.3,36.8,30.29,East,98,1.0,1.0,98,0.00,,,0.00,Wunderground v.1.15,2013-02-03 07:24:00,
2013-02-02 23:29:00,37.2,36.7,30.29,East,98,0.0,1.0,98,0.00,,,0.00,Wunderground v.1.15,2013-02-03 07:29:00,
2013-02-02 23:35:00,37.2,36.7,30.29,East,98,0.0,1.0,98,0.00,,,0.00,Wunderground v.1.15,2013-02-03 07:35:00,
2013-02-02 23:41:00,37.1,36.6,30.29,East,98,1.0,1.0,98,0.00,,,0.00,Wunderground v.1.15,2013-02-03 07:41:00,
2013-02-02 23:46:00,37.1,36.6,30.30,East,98,1.0,1.0,98,0.00,,,0.00,Wunderground v.1.15,2013-02-03 07:46:00,
2013-02-02 23:51:00,37.1,36.6,30.30,East,98,0.0,2.0,98,0.00,,,0.00,Wunderground v.1.15,2013-02-03 07:51:00,
2013-02-02 23:57:00,37.0,36.5,30.31,East,98,1.0,2.0,98,0.00,,,0.00,Wunderground v.1.15,2013-02-03 07:57:00,